Location: Arrecife
(10.5858°N, 67.0742°W)
Time: 15:09:11
(UTC+00:00)

BREEZE-M DEB (TANK) - Pass Details

Date: 08 December 2021
Orbit: 358 x 14876 km, 49.5° (Epoch: 19 January)

Event Time Altitude Azimuth Distance (km) Brightness Sun altitude
Rises 22:42:41 0° 335° (NNW) 2,841 7.0 -9.1°
Reaches altitude 10° 22:45:36 10° 356° (N) 1,475 5.3 -9.8°
Maximum altitude 22:47:39 19° 46° (NE) 936 4.0 -10.3°
Enters shadow 22:48:29 16° 74° (ENE) 1,019 4.0 -10.5°
